Location: ???????
(55.4362°N, 38.1183°E)
Time: 15:27:33
(UTC+00:00)

FENGYUN 1C DEB - Pass Details

Date: 04 February 2022
Orbit: 807 x 954 km, 100.9° (Epoch: 15 May)

Event Time Altitude Azimuth Distance (km) Brightness Sun altitude
Rises 01:14:51 0° 17° (NNE) 3,427 ? -33.8°
Reaches altitude 10° 01:17:24 10° 8° (N) 2,510 ? -33.4°
Enters shadow 01:19:14 19° 355° (N) 1,948 ? -33.2°
